ZDPS 2B (40902 NORAD) Tracking and Keplerian Element Data

This shows tracking and keplerian element data for the satellite.

Feedback or suggestion? Click here.




ElementValue
Catalog40902
NameZDPS 2B
Epoch Orbit17433
Epoch Day317.87034933
Epoch Year2018
RAAN319.7059
Inclination97.4508
Eccentricity0.0012101
Argument of Perigee232.1595
Mean Anonmoly245.1333
Mean Motion15.17140267
Decay Rate1.02E-05
L11 40902U 15049D 18317.87034933 .00001020 00000-0 54750-4 0 9999
L22 40902 97.4508 319.7059 0012101 232.1595 245.1333 15.17140267174339

Live tracking and technical data element details for ZDPS 2B (NORAD 40902). ZDPS 2B can be tracked NOW for your location showing map with azimuth and elevation plus other details from your city location.

Track the satellite on the map from your city or location and see movement details for azimuth, elevation, latitude, longitude, range, height, and movement on the map or in text.







IsCatalogInMostPopularTable: catalog: 40902, numindb: 120
Update: records affected: 1



GetName: 40902 ZDPS 2B

Hit Count: updated at: Wed, 14 Nov 2018 11:42:49 GMT